User: anonymous   Login
Location: Albany
(35.0000°S, 118.0000°E)
Time: 01:28:52
(UTC-04:00)
Language:

Cosmos 2227 Rocket - Orbit

View from above orbital plane
View from above orbital plane
View from above satellite
View from above satellite

Ground track
Ground track

The orbit data is extracted from the following two-line orbital elements,

1 22285U 92093B   17083.89940629 -.00000143 +00000-0 -49084-4 0  9997
2 22285 071.0229 029.0938 0006487 259.7007 100.3384 14.15004181250335
Epoch (UTC): 24 March 2017 21:35:08
Eccentricity: 0.0006487
inclination: 71.0229°
perigee height: 837 km
apogee height: 847 km
right ascension of ascending node: 29.0938°
argument of perigee: 259.7007°
revolutions per day: 14.15004181
mean anomaly at epoch: 100.3384°
orbit number at epoch: 25033

The dashed part of the orbit path shows where the satellite is in the earth's shadow,  

DLR